Weather History for Kahului, HI

Change the Weather History Date:

Thursday, June 5, 2014

  Actual Average Record
Temperature  
Mean Temperature 80 °F 77 °F  
Max Temperature 86 °F 86 °F 93 °F (1953)
Min Temperature 73 °F 69 °F 61 °F (1969)
Degree Days  
Heating Degree Days 0 0  
Month to date heating degree days 0 0  
Since 1 June heating degree days 0 0  
Since 1 July heating degree days 0 0  
Cooling Degree Days 15 12  
Month to date cooling degree days 66 60  
Year to date cooling degree days 1562 1319  
Since 1 June cooling degree days 66 60  
Growing Degree Days 30 (Base 50)    
Moisture  
Dew Point 65 °F    
Average Humidity 61    
Maximum Humidity 73    
Minimum Humidity 48    
Precipitation  
Precipitation 0.01 in 0.01 in 0.10 in (1990)
Month to date precipitation 0.02 0.04  
Year to date precipitation 13.98 9.54  
Snow  
Snow 0.00 in - - ()
Month to date snowfall 0.0  
Since 1 June snowfall 0.0  
Since 1 July snowfall 0.0  
Snow Depth 0.00 in    
Sea Level Pressure  
Sea Level Pressure 30.01 in    
Wind  
Wind Speed 17 mph (NE)    
Max Wind Speed 29 mph    
Max Gust Speed 37 mph    
Visibility 10 miles    
Events      
T = Trace of Precipitation, MM = Missing Value Source: NWS Daily Summary

Daily Weather History Graph

Daily Weather History Graph

Search for Another Location

Airport:

Trip Planner

Search our weather history database for the weather conditions in past years. The results will help you decide how hot, cold, wet, or windy it might be!

Date:

Astronomy

Jun. 05, 2014 Rise Set
Actual Time 5:43 AM HST 7:04 PM HST
Civil Twilight 5:19 AM HST 7:29 PM HST
Nautical Twilight 4:49 AM HST 7:58 PM HST
Astronomical Twilight 4:19 AM HST 8:29 PM HST
Moon 12:28 PM HST (6/5) 12:16 AM HST (6/5)
Length of Visible Light 14h 10m
Length of Day
13h 21m
Waxing Crescent, 51% of the Moon is Illuminated
Jun 5
Waxing Crescent
Jun 12
Full
Jun 19
Last Quarter
Jun 26
New
Jul 5
First Quarter

Hourly Weather History & Observations

Time (HST) Temp. Heat Index Dew Point Humidity Pressure Visibility Wind Dir Wind Speed Gust Speed Precip Events Conditions
12:54 AM 73.0 °F - 64.9 °F 76% 30.01 in 10.0 mi NE 13.8 mph - 0.00 in   Clear
1:54 AM 73.0 °F - 64.0 °F 73% 30.00 in 10.0 mi NE 15.0 mph - N/A   Clear
2:54 AM 73.9 °F - 64.0 °F 71% 29.99 in 10.0 mi NE 11.5 mph - N/A   Clear
3:54 AM 73.0 °F - 64.0 °F 73% 29.99 in 9.0 mi NE 10.4 mph 19.6 mph N/A   Clear
4:54 AM 73.9 °F - 64.0 °F 71% 29.99 in 10.0 mi ENE 11.5 mph 20.7 mph N/A   Clear
5:54 AM 73.9 °F - 64.0 °F 71% 30.00 in 10.0 mi NE 11.5 mph - N/A   Partly Cloudy
6:54 AM 77.0 °F - 64.0 °F 64% 30.02 in 10.0 mi NE 15.0 mph - 0.01 in   Partly Cloudy
7:54 AM 80.1 °F 82.1 °F 66.0 °F 62% 30.02 in 10.0 mi NE 17.3 mph 21.9 mph N/A   Partly Cloudy
8:54 AM 80.1 °F 81.7 °F 64.0 °F 58% 30.04 in 10.0 mi NE 17.3 mph 24.2 mph N/A   Scattered Clouds
9:54 AM 82.9 °F 85.4 °F 66.9 °F 58% 30.02 in 10.0 mi NE 19.6 mph 27.6 mph N/A   Partly Cloudy
10:54 AM 84.0 °F 86.3 °F 66.0 °F 55% 30.01 in 10.0 mi NE 20.7 mph 32.2 mph N/A   Scattered Clouds
11:54 AM 84.9 °F 86.6 °F 64.9 °F 51% 30.01 in 10.0 mi NE 21.9 mph 29.9 mph N/A   Partly Cloudy
12:54 PM 84.0 °F 86.3 °F 66.0 °F 55% 29.99 in 10.0 mi NE 26.5 mph 35.7 mph N/A   Scattered Clouds
1:54 PM 84.9 °F 86.1 °F 64.0 °F 49% 29.99 in 10.0 mi ENE 26.5 mph 34.5 mph N/A   Scattered Clouds
2:54 PM 84.0 °F 84.9 °F 63.0 °F 49% 29.98 in 10.0 mi ENE 23.0 mph 33.4 mph N/A   Scattered Clouds
3:54 PM 84.0 °F 85.8 °F 64.9 °F 53% 29.98 in 10.0 mi ENE 21.9 mph 31.1 mph N/A   Scattered Clouds
4:54 PM 79.0 °F - 66.0 °F 64% 29.98 in 10.0 mi ENE 19.6 mph 29.9 mph N/A   Scattered Clouds
5:54 PM 78.1 °F - 64.9 °F 64% 30.01 in 10.0 mi ENE 16.1 mph 31.1 mph N/A   Scattered Clouds
6:54 PM 75.9 °F - 64.9 °F 69% 30.02 in 10.0 mi NE 15.0 mph 20.7 mph N/A   Scattered Clouds
7:54 PM 75.0 °F - 66.0 °F 73% 30.04 in 10.0 mi NE 10.4 mph - 0.00 in   Scattered Clouds
8:54 PM 73.9 °F - 64.9 °F 73% 30.04 in 10.0 mi NE 10.4 mph - N/A   Clear
9:54 PM 73.9 °F - 64.9 °F 73% 30.06 in 10.0 mi NE 9.2 mph - N/A   Partly Cloudy
10:54 PM 75.0 °F - 64.9 °F 71% 30.06 in 10.0 mi NNE 12.7 mph - N/A   Clear
11:54 PM 75.0 °F - 64.9 °F 71% 30.05 in 10.0 mi NE 11.5 mph - N/A   Clear